Starlink 31993

operational
NORAD ID: 59961 Int'l Des: 2024-107 Owner: SPXS Country: US Constellation: starlink
LEOCIRCULAR

About Starlink 31993

Description loading...

Live Position

Loading 3D Globe...

Upcoming Passes

Altitude History

Altitude vs Time

uPlot chart will show altitude changes over time

Two-Line Element Set

1 59961U 24107S 25260.98060746 .00000888 00000-0 42126-4 0 9992
2 59961 53.1600 147.7659 0001153 74.1029 286.0099 15.30193555 73291
Epoch: Sep 17, 2025 • Age: 18 hours

Current Status

Altitude 478.9 km
Velocity 7.63 km/s
Sub-Earth Point -12.30°S, 71.31°E
Launch Date Jun 5, 2024
Age 1.2 years
Type internet

Technical Details

Classification Payload
Mass 730.00 kg
Dry Mass 700.00 kg
Total Mass 730.00 kg
Length 0.30 m
Diameter 4.10 m
Span 29.00 m
Shape Box + pan
Manufacturer SPXS
Bus Type Starlink V2M
Phase Status In Orbit
Owner/State SPXS/US

Large Constellations

Loading constellations...